This demonstration page uses our WeatherBlox Daily Observations layout. Learn more.

Hourly Observations for October 12, 2015

Temp ( °F °C ) Dew Point ( °F °C ) Humidity (%) Winds ( mph kmh ) Pressure ( in mb ) Visibility ( mi km ) Precip ( " mm )
12:15 am 00:15 Clear 59 15 43 6 55 55 N 8 13 29.77 1008 10 16.09344 0 0
12:35 am 00:35 Clear 59 15 43 6 55 55 N 8 13 29.8 1009 10 16.09344 0 0
12:55 am 00:55 Clear 57 14 43 6 59 59 N 7 11 29.83 1010 10 16.09344 0 0
1:15 am 01:15 Clear 57 14 43 6 59 59 N 8 13 29.83 1010 10 16.09344 0 0
1:35 am 01:35 Clear 57 14 43 6 59 59 N 8 13 29.85 1011 10 16.09344 0 0
1:55 am 01:55 Clear 57 14 41 5 55 55 N 7 11 29.85 1011 10 16.09344 0 0
2:15 am 02:15 Clear 57 14 41 5 55 55 N 6 9 29.85 1011 10 16.09344 0 0
2:35 am 02:35 Clear 54 12 41 5 63 63 NNW 5 7 29.88 1012 10 16.09344 0 0
2:55 am 02:55 Clear 52 11 41 5 67 67 NW 5 7 29.91 1013 10 16.09344 0 0
3:15 am 03:15 Clear 52 11 41 5 67 67 NW 7 11 29.94 1014 10 16.09344 0 0
3:35 am 03:35 Clear 52 11 41 5 67 67 NW 8 13 29.94 1014 10 16.09344 0 0
3:55 am 03:55 Clear 52 11 41 5 67 67 NW 9 15 29.94 1014 10 16.09344 0 0
4:15 am 04:15 Clear 52 11 41 5 67 67 NW 9 15 29.94 1014 10 16.09344 0 0
4:35 am 04:35 Clear 52 11 39 4 62 62 NW 8 13 29.97 1015 10 16.09344 0 0
4:55 am 04:55 Clear 52 11 39 4 62 62 NW 7 11 29.97 1015 10 16.09344 0 0
5:15 am 05:15 Clear 52 11 37 3 58 58 NW 7 11 29.97 1015 10 16.09344 0 0
5:35 am 05:35 Clear 52 11 36 2 54 54 NW 7 11 29.97 1015 10 16.09344 0 0
5:55 am 05:55 Clear 50 10 36 2 58 58 NW 6 9 29.97 1015 10 16.09344 0 0
6:15 am 06:15 Clear 50 10 36 2 58 58 NW 7 11 29.97 1015 10 16.09344 0 0
6:35 am 06:35 Clear 50 10 36 2 58 58 NW 7 11 30 1016 10 16.09344 0 0
6:55 am 06:55 Clear 48 9 34 1 58 58 WNW 7 11 30.03 1017 10 16.09344 0 0
7:15 am 07:15 Clear 48 9 34 1 58 58 NW 5 7 30.03 1017 10 16.09344 0 0
7:35 am 07:35 Clear 46 8 34 1 62 62 WNW 5 7 30.03 1017 10 16.09344 0 0
7:55 am 07:55 Sunny 45 7 34 1 66 66 WNW 7 11 30.06 1018 10 16.09344 0 0
8:15 am 08:15 Sunny 45 7 34 1 66 66 WNW 6 9 30.06 1018 10 16.09344 0 0
8:35 am 08:35 Sunny 48 9 34 1 58 58 WNW 7 11 30.06 1018 10 16.09344 0 0
8:55 am 08:55 Sunny 52 11 32 0 47 47 NW 9 15 30.03 1017 10 16.09344 0 0
9:15 am 09:15 Sunny 55 13 32 0 41 41 NW 10 17 30 1016 10 16.09344 0 0
9:35 am 09:35 Sunny 59 15 30 -1 34 34 NW 13 20 30 1016 10 16.09344 0 0
9:55 am 09:55 Sunny 61 16 28 -2 29 29 NW 14 22 30 1016 10 16.09344 0 0
10:10 am 10:10 Sunny 63 17 28 -2 27 27 NW 16 26 29.97 1015 10 16.09344 0 0
10:35 am 10:35 Sunny 64 18 28 -2 26 26 NNW 21 33 29.97 1015 10 16.09344 0 0
10:55 am 10:55 Sunny 64 18 27 -3 24 24 NNW 24 39 29.97 1015 10 16.09344 0 0
11:15 am 11:15 Sunny 66 19 28 -2 24 24 NNW 21 33 29.97 1015 10 16.09344 0 0
11:35 am 11:35 Sunny 66 19 28 -2 24 24 NNW 16 26 29.97 1015 10 16.09344 0 0
11:55 am 11:55 Sunny 66 19 27 -3 22 22 NNW 20 31 29.97 1015 10 16.09344 0 0
12:15 pm 12:15 Sunny 68 20 28 -2 23 23 NW 12 19 29.94 1014 10 16.09344 0 0
12:35 pm 12:35 Sunny 68 20 27 -3 21 21 NW 20 31 29.94 1014 10 16.09344 0 0
12:55 pm 12:55 Sunny 70 21 25 -4 18 18 NNW 18 30 29.94 1014 10 16.09344 0 0
1:15 pm 13:15 Sunny 70 21 27 -3 20 20 NW 13 20 29.94 1014 10 16.09344 0 0
1:35 pm 13:35 Sunny 72 22 27 -3 19 19 NNW 12 19 29.91 1013 10 16.09344 0 0
1:55 pm 13:55 Sunny 72 22 25 -4 17 17 NW 13 20 29.91 1013 10 16.09344 0 0
2:15 pm 14:15 Sunny 72 22 25 -4 17 17 NNW 15 24 29.91 1013 10 16.09344 0 0
2:35 pm 14:35 Sunny 72 22 25 -4 17 17 WNW 13 20 29.88 1012 10 16.09344 0 0
2:55 pm 14:55 Sunny 73 23 23 -5 15 15 NNW 16 26 29.85 1011 10 16.09344 0 0
3:15 pm 15:15 Sunny 73 23 23 -5 15 15 NNW 17 28 29.85 1011 10 16.09344 0 0
3:35 pm 15:35 Sunny 73 23 23 -5 15 15 NW 18 30 29.85 1011 10 16.09344 0 0
3:55 pm 15:55 Sunny 73 23 23 -5 15 15 NNW 12 19 29.85 1011 10 16.09344 0 0
4:15 pm 16:15 Sunny 73 23 23 -5 15 15 NW 20 31 29.85 1011 10 16.09344 0 0
4:35 pm 16:35 Sunny 73 23 23 -5 15 15 NW 12 19 29.85 1011 10 16.09344 0 0
4:55 pm 16:55 Sunny 73 23 23 -5 15 15 NNW 12 19 29.85 1011 10 16.09344 0 0
5:15 pm 17:15 Sunny 73 23 23 -5 15 15 NW 14 22 29.85 1011 10 16.09344 0 0
5:35 pm 17:35 Sunny 72 22 23 -5 16 16 NNW 13 20 29.88 1012 10 16.09344 0 0
5:55 pm 17:55 Sunny 72 22 23 -5 16 16 NNW 13 20 29.88 1012 10 16.09344 0 0
6:15 pm 18:15 Sunny 70 21 23 -5 17 17 NNW 10 17 29.88 1012 10 16.09344 0 0
6:35 pm 18:35 Sunny 68 20 25 -4 20 20 NNW 6 9 29.88 1012 10 16.09344 0 0
6:55 pm 18:55 Sunny 66 19 27 -3 22 22 NNW 5 7 29.91 1013 10 16.09344 0 0
7:15 pm 19:15 Clear 63 17 27 -3 25 25 NNW 6 9 29.91 1013 10 16.09344 0 0
7:35 pm 19:35 Clear 61 16 27 -3 27 27 NNW 5 7 29.91 1013 10 16.09344 0 0
7:55 pm 19:55 Clear 59 15 28 -2 31 31 Calm 29.94 1014 10 16.09344 0 0
8:15 pm 20:15 Clear 55 13 28 -2 36 36 NW 3 6 29.97 1015 10 16.09344 0 0
8:35 pm 20:35 Clear 54 12 28 -2 38 38 WNW 3 6 30 1016 10 16.09344 0 0
8:55 pm 20:55 Clear 55 13 28 -2 36 36 W 5 7 29.97 1015 10 16.09344 0 0
9:15 pm 21:15 Clear 55 13 30 -1 38 38 W 6 9 29.97 1015 10 16.09344 0 0
9:35 pm 21:35 Clear 54 12 30 -1 41 41 W 7 11 30 1016 10 16.09344 0 0
9:55 pm 21:55 Clear 54 12 30 -1 41 41 W 7 11 30 1016 10 16.09344 0 0
10:15 pm 22:15 Clear 54 12 30 -1 41 41 W 6 9 30 1016 10 16.09344 0 0
10:35 pm 22:35 Clear 54 12 30 -1 41 41 WNW 6 9 30 1016 10 16.09344 0 0
10:55 pm 22:55 Clear 54 12 30 -1 41 41 WNW 5 7 30 1016 10 16.09344 0 0
11:15 pm 23:15 Clear 48 9 32 0 54 54 NNW 3 6 30.03 1017 10 16.09344 0 0
11:35 pm 23:35 Clear 45 7 32 0 61 61 W 5 7 30.03 1017 10 16.09344 0 0
11:55 pm 23:55 Clear 46 8 32 0 57 57 W 7 11 30.03 1017 10 16.09344 0 0

Powered by AerisWeather